Year,Month,Day,Hour,Minute,Value (Times are PST for temperature in C)
2009,03,11,01,07,-0.40
2009,03,11,01,08,-0.40
2009,03,11,01,09,-0.40
2009,03,11,01,10,-0.40
2009,03,11,01,11,-0.40
2009,03,11,01,12,-0.40
2009,03,11,01,13,-0.40
2009,03,11,01,14,-0.50
2009,03,11,01,15,-0.50
2009,03,11,01,16,-0.50
2009,03,11,01,17,-0.60
2009,03,11,01,18,-0.60
2009,03,11,01,19,-0.60
2009,03,11,01,20,-0.60
2009,03,11,01,21,-0.60
2009,03,11,01,22,-0.60
2009,03,11,01,23,-0.60
2009,03,11,01,24,-0.60
2009,03,11,01,25,-0.70
2009,03,11,01,26,-0.70
2009,03,11,01,27,-0.70
2009,03,11,01,28,-0.70
2009,03,11,01,29,-0.70
2009,03,11,01,30,-0.70
2009,03,11,01,31,-0.80
2009,03,11,01,32,-0.80
2009,03,11,01,33,-0.80
2009,03,11,01,34,-0.80
2009,03,11,01,35,-0.80
2009,03,11,01,36,-0.80
2009,03,11,01,37,-0.80
2009,03,11,01,38,-0.80
2009,03,11,01,39,-0.80
2009,03,11,01,40,-0.80
2009,03,11,01,41,-0.80
2009,03,11,01,42,-0.80
2009,03,11,01,43,-0.80
2009,03,11,01,44,-0.80
2009,03,11,01,45,-0.80
2009,03,11,01,46,-0.80
2009,03,11,01,47,-0.80
2009,03,11,01,48,-0.80
2009,03,11,01,49,-0.80
2009,03,11,01,50,-0.80
2009,03,11,01,51,-0.80
2009,03,11,01,52,-0.90
2009,03,11,01,53,-0.90
2009,03,11,01,54,-0.90
2009,03,11,01,55,-0.90
2009,03,11,01,56,-0.90
2009,03,11,01,57,-0.90
2009,03,11,01,58,-0.90
2009,03,11,01,59,-0.90
2009,03,11,02,00,-0.90
2009,03,11,02,01,-1.00
2009,03,11,02,02,-0.90
2009,03,11,02,03,-1.00
2009,03,11,02,04,-1.00
2009,03,11,02,05,-1.00
2009,03,11,02,06,-1.00
2009,03,11,02,07,-1.00
2009,03,11,02,08,-1.00
2009,03,11,02,09,-1.10
2009,03,11,02,10,-1.10
2009,03,11,02,11,-1.10
2009,03,11,02,12,-1.10
2009,03,11,02,13,-1.10
2009,03,11,02,14,-1.10
2009,03,11,02,15,-1.10
2009,03,11,02,16,-1.10
2009,03,11,02,17,-1.10
2009,03,11,02,18,-1.20
2009,03,11,02,19,-1.20
2009,03,11,02,20,-1.20
2009,03,11,02,21,-1.20
2009,03,11,02,22,-1.20
2009,03,11,02,23,-1.20
2009,03,11,02,24,-1.20
2009,03,11,02,25,-1.20
2009,03,11,02,26,-1.20
2009,03,11,02,27,-1.20
2009,03,11,02,28,-1.30
2009,03,11,02,29,-1.30
2009,03,11,02,30,-1.30
2009,03,11,02,31,-1.30
2009,03,11,02,32,-1.30
2009,03,11,02,33,-1.30
2009,03,11,02,34,-1.30
2009,03,11,02,35,-1.30
2009,03,11,02,36,-1.30
2009,03,11,02,37,-1.30
2009,03,11,02,38,-1.30
2009,03,11,02,39,-1.30
2009,03,11,02,40,-1.40
2009,03,11,02,41,-1.40
2009,03,11,02,42,-1.40
2009,03,11,02,43,-1.40
2009,03,11,02,44,-1.40
2009,03,11,02,45,-1.40
2009,03,11,02,46,-1.40
2009,03,11,02,47,-1.30
2009,03,11,02,48,-1.30
2009,03,11,02,49,-1.30
2009,03,11,02,50,-1.30
2009,03,11,02,51,-1.30
2009,03,11,02,52,-1.30
2009,03,11,02,53,-1.30
2009,03,11,02,54,-1.30
2009,03,11,02,55,-1.30
2009,03,11,02,56,-1.30
2009,03,11,02,57,-1.30
2009,03,11,02,58,-1.30
2009,03,11,02,59,-1.30
2009,03,11,03,00,-1.30
2009,03,11,03,01,-1.30
2009,03,11,03,02,-1.30
2009,03,11,03,03,-1.30
2009,03,11,03,04,-1.30
2009,03,11,03,05,-1.30
2009,03,11,03,06,-1.30
2009,03,11,03,07,-1.30
2009,03,11,03,08,-1.30
2009,03,11,03,09,-1.30
2009,03,11,03,10,-1.30
2009,03,11,03,11,-1.30
2009,03,11,03,12,-1.30
2009,03,11,03,13,-1.30
2009,03,11,03,14,-1.30
2009,03,11,03,15,-1.30
2009,03,11,03,16,-1.30
2009,03,11,03,17,-1.30
2009,03,11,03,18,-1.40
2009,03,11,03,19,-1.40
2009,03,11,03,20,-1.40
2009,03,11,03,21,-1.40
2009,03,11,03,22,-1.40
2009,03,11,03,23,-1.40
2009,03,11,03,24,-1.50
2009,03,11,03,25,-1.50
2009,03,11,03,26,-1.50
2009,03,11,03,27,-1.50
2009,03,11,03,28,-1.50
2009,03,11,03,29,-1.50
2009,03,11,03,30,-1.50
2009,03,11,03,31,-1.50
2009,03,11,03,32,-1.50
2009,03,11,03,33,-1.50
2009,03,11,03,34,-1.50
2009,03,11,03,35,-1.50
2009,03,11,03,36,-1.40
2009,03,11,03,37,-1.40
2009,03,11,03,38,-1.40
2009,03,11,03,39,-1.40
2009,03,11,03,40,-1.40
2009,03,11,03,41,-1.40
2009,03,11,03,42,-1.40
2009,03,11,03,43,-1.40
2009,03,11,03,44,-1.40
2009,03,11,03,45,-1.40
2009,03,11,03,46,-1.40
2009,03,11,03,47,-1.40
2009,03,11,03,48,-1.40
2009,03,11,03,49,-1.40
2009,03,11,03,50,-1.40
2009,03,11,03,51,-1.40
2009,03,11,03,52,-1.40
2009,03,11,03,53,-1.40
2009,03,11,03,54,-1.40
2009,03,11,03,55,-1.50
2009,03,11,03,56,-1.50
2009,03,11,03,57,-1.50
2009,03,11,03,58,-1.50
2009,03,11,03,59,-1.50
2009,03,11,04,00,-1.60
2009,03,11,04,01,-1.60
2009,03,11,04,02,-1.60
2009,03,11,04,03,-1.60
2009,03,11,04,04,-1.60
2009,03,11,04,05,-1.60
2009,03,11,04,06,-1.60
2009,03,11,04,07,-1.70
2009,03,11,04,08,-1.70
2009,03,11,04,09,-1.70
2009,03,11,04,10,-1.70
2009,03,11,04,11,-1.80
2009,03,11,04,12,-1.80
2009,03,11,04,13,-1.80
2009,03,11,04,14,-1.80
2009,03,11,04,15,-1.80
2009,03,11,04,16,-1.80
2009,03,11,04,17,-1.80
2009,03,11,04,18,-1.80
2009,03,11,04,19,-1.80
2009,03,11,04,20,-1.80
2009,03,11,04,21,-1.80
2009,03,11,04,22,-1.80
2009,03,11,04,23,-1.80
2009,03,11,04,24,-1.80
2009,03,11,04,25,-1.80
2009,03,11,04,26,-1.80
2009,03,11,04,27,-1.80
2009,03,11,04,28,-1.80
2009,03,11,04,29,-1.80
2009,03,11,04,30,-1.80
2009,03,11,04,31,-1.80
2009,03,11,04,32,-1.90
2009,03,11,04,33,-1.90
2009,03,11,04,34,-1.90
2009,03,11,04,35,-1.90
2009,03,11,04,36,-1.90
2009,03,11,04,37,-1.90
2009,03,11,04,38,-1.90
2009,03,11,04,39,-1.90
2009,03,11,04,40,-1.90
2009,03,11,04,41,-2.00
2009,03,11,04,42,-2.00
2009,03,11,04,43,-2.00
2009,03,11,04,44,-2.10
2009,03,11,04,45,-2.10
2009,03,11,04,46,-2.10
2009,03,11,04,47,-2.20
2009,03,11,04,48,-2.20
2009,03,11,04,49,-2.20
2009,03,11,04,50,-2.20
2009,03,11,04,51,-2.20
2009,03,11,04,52,-2.20
2009,03,11,04,53,-2.10
2009,03,11,04,54,-2.10
2009,03,11,04,55,-2.10
2009,03,11,04,56,-2.00
2009,03,11,04,57,-2.00
2009,03,11,04,58,-1.90
2009,03,11,04,59,-1.90
2009,03,11,05,00,-1.90
2009,03,11,05,01,-1.90
2009,03,11,05,02,-1.90
2009,03,11,05,03,-1.90
2009,03,11,05,17,-1.80
2009,03,11,05,26,-1.30
2009,03,11,05,36,-1.10
2009,03,11,05,37,-1.10
2009,03,11,05,38,-1.10
2009,03,11,05,39,-1.10
2009,03,11,05,40,-1.10
2009,03,11,05,41,-1.10
2009,03,11,05,42,-1.10
2009,03,11,05,43,-1.10
2009,03,11,05,44,-1.10
2009,03,11,05,45,-1.10
2009,03,11,05,46,-1.10
2009,03,11,05,47,-1.00
2009,03,11,05,48,-1.00
2009,03,11,05,49,-1.00
2009,03,11,05,50,-0.90
2009,03,11,05,51,-0.90
2009,03,11,05,52,-0.90
2009,03,11,05,53,-0.90
2009,03,11,05,54,-0.90
2009,03,11,05,55,-0.90
2009,03,11,05,56,-0.90
2009,03,11,05,57,-0.90
2009,03,11,05,58,-0.90
2009,03,11,05,59,-0.90
2009,03,11,06,00,-0.90
2009,03,11,06,01,-0.90
2009,03,11,06,02,-0.80
2009,03,11,06,03,-0.80
2009,03,11,06,04,-0.70
2009,03,11,06,05,-0.70
2009,03,11,06,06,-0.70
2009,03,11,06,07,-0.70
2009,03,11,06,08,-0.70
2009,03,11,06,09,-0.70
2009,03,11,06,10,-0.70
2009,03,11,06,11,-0.70
2009,03,11,06,12,-0.60
2009,03,11,06,13,-0.60
2009,03,11,06,14,-0.60
2009,03,11,06,15,-0.60
2009,03,11,06,16,-0.60
2009,03,11,06,17,-0.60
2009,03,11,06,18,-0.60
2009,03,11,06,19,-0.60
2009,03,11,06,20,-0.60
2009,03,11,06,21,-0.60
2009,03,11,06,22,-0.50
2009,03,11,06,23,-0.50
2009,03,11,06,24,-0.50
2009,03,11,06,25,-0.40
2009,03,11,06,26,-0.40
2009,03,11,06,27,-0.40
2009,03,11,06,28,-0.40
2009,03,11,06,29,-0.40
2009,03,11,06,30,-0.30
2009,03,11,06,31,-0.30
2009,03,11,06,32,-0.30
2009,03,11,06,33,-0.30
2009,03,11,06,34,-0.30
2009,03,11,06,35,-0.30
2009,03,11,06,36,-0.30
2009,03,11,06,37,-0.30
2009,03,11,06,38,-0.30
2009,03,11,06,39,-0.30
2009,03,11,06,40,-0.30
2009,03,11,06,41,-0.30
2009,03,11,06,42,-0.30
2009,03,11,06,43,-0.30
2009,03,11,06,44,-0.30
2009,03,11,06,45,-0.30
2009,03,11,06,46,-0.30
2009,03,11,06,47,-0.30
2009,03,11,06,48,-0.20
2009,03,11,06,49,-0.20
2009,03,11,06,50,-0.20
2009,03,11,06,51,-0.10
2009,03,11,06,52,-0.10
2009,03,11,06,53,-0.10
2009,03,11,06,54,-0.10
2009,03,11,06,55,-0.10
2009,03,11,06,56,-0.10
2009,03,11,06,57,-0.10
2009,03,11,06,58,-0.10
2009,03,11,06,59,-0.10
2009,03,11,07,00,-0.10
2009,03,11,07,01,-0.10
2009,03,11,07,02,-0.10
2009,03,11,07,03,-0.10
2009,03,11,07,04,-0.10
2009,03,11,07,05,-0.10
2009,03,11,07,06,-0.10
2009,03,11,07,07,-0.10
2009,03,11,07,08,-0.20
2009,03,11,07,09,-0.20
2009,03,11,07,10,-0.20
2009,03,11,07,11,-0.20
2009,03,11,07,12,-0.20
2009,03,11,07,13,-0.20
2009,03,11,07,14,-0.20
2009,03,11,07,15,-0.20
2009,03,11,07,16,-0.20
2009,03,11,07,17,-0.20
2009,03,11,07,18,-0.20
2009,03,11,07,19,-0.20
2009,03,11,07,20,-0.20
2009,03,11,07,21,-0.20
2009,03,11,07,22,-0.20
2009,03,11,07,23,-0.20
2009,03,11,07,24,-0.30
2009,03,11,07,25,-0.30
2009,03,11,07,26,-0.30
2009,03,11,07,27,-0.30
2009,03,11,07,28,-0.30
2009,03,11,07,29,-0.30
2009,03,11,07,30,-0.30
2009,03,11,07,31,-0.30
2009,03,11,07,32,-0.30
2009,03,11,07,33,-0.30
2009,03,11,07,34,-0.30
2009,03,11,07,35,-0.30
2009,03,11,07,36,-0.30
2009,03,11,07,37,-0.30
2009,03,11,07,38,-0.30
2009,03,11,07,39,-0.30
2009,03,11,07,40,-0.30
2009,03,11,07,41,-0.30
2009,03,11,07,42,-0.30
2009,03,11,07,43,-0.30
2009,03,11,07,44,-0.30
2009,03,11,07,45,-0.30
2009,03,11,07,46,-0.30
2009,03,11,07,47,-0.30
2009,03,11,07,48,-0.30
2009,03,11,07,49,-0.30
2009,03,11,07,50,-0.30
2009,03,11,07,51,-0.30
2009,03,11,07,52,-0.30
2009,03,11,07,53,-0.30
2009,03,11,07,54,-0.30
2009,03,11,07,55,-0.30
2009,03,11,07,56,-0.30
2009,03,11,07,57,-0.30
2009,03,11,07,58,-0.30
2009,03,11,07,59,-0.30
2009,03,11,08,00,-0.30
2009,03,11,08,01,-0.30
2009,03,11,08,02,-0.30
2009,03,11,08,03,-0.30
2009,03,11,08,04,-0.30
2009,03,11,08,05,-0.30
2009,03,11,08,06,-0.30
2009,03,11,08,07,-0.30
2009,03,11,08,08,-0.30
2009,03,11,08,09,-0.30
2009,03,11,08,10,-0.30
2009,03,11,08,11,-0.30
2009,03,11,08,12,-0.30
2009,03,11,08,13,-0.30
2009,03,11,08,14,-0.30
2009,03,11,08,15,-0.30
2009,03,11,08,16,-0.20
2009,03,11,08,17,-0.20
2009,03,11,08,18,-0.20
2009,03,11,08,19,-0.20
2009,03,11,08,20,-0.10
2009,03,11,08,21,-0.10
2009,03,11,08,22,-0.10
2009,03,11,08,23,0.00
2009,03,11,08,24,0.00
2009,03,11,08,25,0.00
2009,03,11,08,26,0.10
2009,03,11,08,27,0.10
2009,03,11,08,28,0.10
2009,03,11,08,29,0.10
2009,03,11,08,30,0.10
2009,03,11,08,31,0.20
2009,03,11,08,32,0.20
2009,03,11,08,33,0.20
2009,03,11,08,34,0.20
2009,03,11,08,35,0.20
2009,03,11,08,36,0.20
2009,03,11,08,37,0.30
2009,03,11,08,38,0.30
2009,03,11,08,39,0.30
2009,03,11,08,40,0.30
2009,03,11,08,41,0.30
2009,03,11,08,42,0.30
2009,03,11,08,43,0.30
2009,03,11,08,44,0.40
2009,03,11,08,45,0.40
2009,03,11,08,46,0.40
2009,03,11,08,47,0.40
2009,03,11,08,48,0.40
2009,03,11,08,49,0.40
2009,03,11,08,50,0.40
2009,03,11,08,51,0.40
2009,03,11,08,52,0.40
2009,03,11,08,53,0.40
2009,03,11,08,54,0.50
2009,03,11,08,55,0.50
2009,03,11,08,56,0.60
2009,03,11,08,57,0.60
2009,03,11,08,58,0.60
2009,03,11,08,59,0.60
2009,03,11,09,00,0.70
2009,03,11,09,01,0.70
2009,03,11,09,02,0.70
2009,03,11,09,03,0.70
2009,03,11,09,04,0.70
2009,03,11,09,05,0.70
2009,03,11,09,06,0.70
2009,03,11,09,07,0.70
2009,03,11,09,08,0.70
2009,03,11,09,09,0.70
2009,03,11,09,10,0.70
2009,03,11,09,11,0.70
2009,03,11,09,12,0.70
2009,03,11,09,13,0.70
2009,03,11,09,14,0.70
2009,03,11,09,15,0.70
2009,03,11,09,16,0.70
2009,03,11,09,17,0.70
2009,03,11,09,18,0.70
2009,03,11,09,19,0.70
2009,03,11,09,20,0.70
2009,03,11,09,21,0.60
2009,03,11,09,22,0.60
2009,03,11,09,23,0.60
2009,03,11,09,24,0.60
2009,03,11,09,25,0.70
2009,03,11,09,26,0.70
2009,03,11,09,27,0.70
2009,03,11,09,28,0.70
2009,03,11,09,29,0.70
2009,03,11,09,30,0.70
2009,03,11,09,31,0.70
2009,03,11,09,32,0.70
2009,03,11,09,33,0.70
2009,03,11,09,34,0.70
2009,03,11,09,35,0.70
2009,03,11,09,36,0.70
2009,03,11,09,37,0.80
2009,03,11,09,38,0.80
2009,03,11,09,39,0.80
2009,03,11,09,40,0.80
2009,03,11,09,41,0.80
2009,03,11,09,42,0.80
2009,03,11,09,43,0.80
2009,03,11,09,44,0.80
2009,03,11,09,45,0.80
2009,03,11,09,46,0.80
2009,03,11,09,47,0.80
2009,03,11,09,48,0.80
2009,03,11,09,49,0.90
2009,03,11,09,50,0.90
2009,03,11,09,51,0.80
2009,03,11,09,52,0.80
2009,03,11,09,53,0.80
2009,03,11,09,54,0.80
2009,03,11,09,55,0.80
2009,03,11,09,56,0.80
2009,03,11,09,57,0.80
2009,03,11,09,58,0.80
2009,03,11,09,59,0.80
2009,03,11,10,00,0.90
2009,03,11,10,01,0.90
2009,03,11,10,02,0.90
2009,03,11,10,03,1.00
2009,03,11,10,04,1.00
2009,03,11,10,05,1.00
2009,03,11,10,06,1.00
2009,03,11,10,07,1.10
2009,03,11,10,08,1.20
2009,03,11,10,09,1.20
2009,03,11,10,10,1.20
2009,03,11,10,11,1.20
2009,03,11,10,12,1.10
2009,03,11,10,13,1.10
2009,03,11,10,14,1.10
2009,03,11,10,15,1.10
2009,03,11,10,16,1.10
2009,03,11,10,17,1.10
2009,03,11,10,18,1.10
2009,03,11,10,19,1.10
2009,03,11,10,20,1.10
2009,03,11,10,21,1.20
2009,03,11,10,22,1.10
2009,03,11,10,23,1.10
2009,03,11,10,24,1.10
2009,03,11,10,25,1.10
2009,03,11,10,26,1.10
2009,03,11,10,27,1.10
2009,03,11,10,28,1.10
2009,03,11,10,29,1.10
2009,03,11,10,30,1.20
2009,03,11,10,31,1.20
2009,03,11,10,32,1.20
2009,03,11,10,33,1.30
2009,03,11,10,34,1.30
2009,03,11,10,35,1.30
2009,03,11,10,36,1.30
2009,03,11,10,37,1.30
2009,03,11,10,38,1.30
2009,03,11,10,39,1.30
2009,03,11,10,40,1.30
2009,03,11,10,41,1.30
2009,03,11,10,42,1.30
2009,03,11,10,43,1.30
2009,03,11,10,44,1.20
2009,03,11,10,45,1.20
2009,03,11,10,46,1.20
2009,03,11,10,47,1.20
2009,03,11,10,48,1.30
2009,03,11,10,49,1.30
2009,03,11,10,50,1.30
2009,03,11,10,51,1.30
2009,03,11,10,52,1.30
2009,03,11,10,53,1.40
2009,03,11,10,54,1.50
2009,03,11,10,55,1.60
2009,03,11,10,56,1.60
2009,03,11,10,57,1.60
2009,03,11,10,58,1.70
2009,03,11,10,59,1.70
2009,03,11,11,00,1.80
2009,03,11,11,01,1.80
2009,03,11,11,02,1.80
2009,03,11,11,03,1.70
2009,03,11,11,04,1.70
2009,03,11,11,05,1.60
2009,03,11,11,06,1.70
2009,03,11,11,07,1.60
2009,03,11,11,08,1.60
2009,03,11,11,09,1.60
2009,03,11,11,10,1.60
2009,03,11,11,11,1.60
2009,03,11,11,12,1.60
2009,03,11,11,13,1.60
2009,03,11,11,14,1.60
2009,03,11,11,15,1.60
2009,03,11,11,16,1.60
2009,03,11,11,17,1.60
2009,03,11,11,18,1.60
2009,03,11,11,19,1.60
2009,03,11,11,20,1.60
2009,03,11,11,21,1.70
2009,03,11,11,22,1.70
2009,03,11,11,23,1.80
2009,03,11,11,24,1.80
2009,03,11,11,25,1.80
2009,03,11,11,26,1.80
2009,03,11,11,27,1.80
2009,03,11,11,28,1.80
2009,03,11,11,29,1.80
2009,03,11,11,30,1.80
2009,03,11,11,31,1.80
2009,03,11,11,32,1.80
2009,03,11,11,33,1.80
2009,03,11,11,34,1.70
2009,03,11,11,35,1.70
2009,03,11,11,36,1.70
2009,03,11,11,37,1.70
2009,03,11,11,38,1.70
2009,03,11,11,39,1.80
2009,03,11,11,40,1.80
2009,03,11,11,41,1.90
2009,03,11,11,42,2.00
2009,03,11,11,43,2.00
2009,03,11,11,44,1.90
2009,03,11,11,45,1.90
2009,03,11,11,46,1.80
2009,03,11,11,47,1.80
2009,03,11,11,48,1.80
2009,03,11,11,49,1.80
2009,03,11,11,50,1.90
2009,03,11,11,51,2.00
2009,03,11,11,52,2.10
2009,03,11,11,53,2.10
2009,03,11,11,54,2.10
2009,03,11,11,55,2.10
2009,03,11,11,56,2.00
2009,03,11,11,57,2.00
2009,03,11,11,58,2.00
2009,03,11,11,59,2.00
2009,03,11,12,00,1.90
2009,03,11,12,01,1.80
2009,03,11,12,02,1.90
2009,03,11,12,03,1.90
2009,03,11,12,04,1.90
2009,03,11,12,05,1.90
2009,03,11,12,06,1.90
2009,03,11,12,07,1.90
2009,03,11,12,08,1.90
2009,03,11,12,09,1.90
2009,03,11,12,10,2.00
2009,03,11,12,11,2.00
2009,03,11,12,12,2.00
2009,03,11,12,13,2.10
2009,03,11,12,14,2.10
2009,03,11,12,15,2.10
2009,03,11,12,16,2.20
2009,03,11,12,17,2.20
2009,03,11,12,18,2.20
2009,03,11,12,19,2.20
2009,03,11,12,20,2.20
2009,03,11,12,21,2.30
2009,03,11,12,22,2.40
2009,03,11,12,23,2.40
2009,03,11,12,24,2.40
2009,03,11,12,25,2.40
2009,03,11,12,26,2.40
2009,03,11,12,27,2.30
2009,03,11,12,28,2.30
2009,03,11,12,29,2.30
2009,03,11,12,30,2.30
2009,03,11,12,31,2.30
2009,03,11,12,32,2.40
2009,03,11,12,33,2.40
2009,03,11,12,34,2.40
2009,03,11,12,35,2.40
2009,03,11,12,36,2.40
2009,03,11,12,37,2.40
2009,03,11,12,38,2.50
2009,03,11,12,39,2.60
2009,03,11,12,40,2.60
2009,03,11,12,41,2.60
2009,03,11,12,42,2.60
2009,03,11,12,43,2.70
2009,03,11,12,44,2.60
2009,03,11,12,45,2.60
2009,03,11,12,46,2.60
2009,03,11,12,47,2.60
2009,03,11,12,48,2.60
2009,03,11,12,49,2.60
2009,03,11,12,50,2.60
2009,03,11,12,51,2.60
2009,03,11,12,52,2.50
2009,03,11,12,53,2.50
2009,03,11,12,54,2.50
2009,03,11,12,55,2.50
2009,03,11,12,56,2.50
2009,03,11,12,57,2.50
2009,03,11,12,58,2.60
2009,03,11,12,59,2.60
2009,03,11,13,00,2.70
2009,03,11,13,01,2.70
2009,03,11,13,02,2.80
2009,03,11,13,03,2.80
2009,03,11,13,04,2.80
2009,03,11,13,05,2.80
2009,03,11,13,06,2.80
2009,03,11,13,07,2.90
2009,03,11,13,08,2.90
2009,03,11,13,09,2.90
2009,03,11,13,10,2.90
2009,03,11,13,11,2.90
2009,03,11,13,12,2.90
2009,03,11,13,13,3.00
2009,03,11,13,14,3.00
2009,03,11,13,15,3.00
2009,03,11,13,16,3.00
2009,03,11,13,17,3.00
2009,03,11,13,18,2.90
2009,03,11,13,19,2.80
2009,03,11,13,20,2.80
2009,03,11,13,21,2.80
2009,03,11,13,22,2.80
2009,03,11,13,23,2.80
2009,03,11,13,24,2.80
2009,03,11,13,25,2.80
2009,03,11,13,26,2.80
2009,03,11,13,27,2.90
2009,03,11,13,28,3.00
2009,03,11,13,29,2.90
2009,03,11,13,30,2.90
2009,03,11,13,31,2.80
2009,03,11,13,32,2.80
2009,03,11,13,33,2.80
2009,03,11,13,34,2.90
2009,03,11,13,35,2.90
2009,03,11,13,36,2.90
2009,03,11,13,37,2.90
2009,03,11,13,38,2.90
2009,03,11,13,39,2.90
2009,03,11,13,40,2.90
2009,03,11,13,41,3.00
2009,03,11,13,42,3.00
2009,03,11,13,43,3.00
2009,03,11,13,44,3.00
2009,03,11,13,45,3.00
2009,03,11,13,46,3.00
2009,03,11,13,47,3.20
2009,03,11,13,48,3.20
2009,03,11,13,49,3.20
2009,03,11,13,50,3.30
2009,03,11,13,51,3.30
2009,03,11,13,52,3.30
2009,03,11,13,53,3.30
2009,03,11,13,54,3.30
2009,03,11,13,55,3.30
2009,03,11,13,56,3.20
2009,03,11,13,57,3.20
2009,03,11,13,58,3.20
2009,03,11,13,59,3.20
2009,03,11,14,00,3.20
2009,03,11,14,01,3.20
2009,03,11,14,02,3.10
2009,03,11,14,03,3.10
2009,03,11,14,04,3.20
2009,03,11,14,05,3.30
2009,03,11,14,06,3.30
2009,03,11,14,07,3.40
2009,03,11,14,08,3.40
2009,03,11,14,09,3.40
2009,03,11,14,10,3.40
2009,03,11,14,11,3.40
2009,03,11,14,12,3.40
2009,03,11,14,13,3.50
2009,03,11,14,14,3.50
2009,03,11,14,15,3.50
2009,03,11,14,16,3.50
2009,03,11,14,17,3.50
2009,03,11,14,18,3.40
2009,03,11,14,19,3.40
2009,03,11,14,20,3.30
2009,03,11,14,21,3.30
2009,03,11,14,22,3.30
2009,03,11,14,23,3.20
2009,03,11,14,24,3.20
2009,03,11,14,25,3.20
2009,03,11,14,26,3.30
2009,03,11,14,27,3.30
2009,03,11,14,28,3.30
2009,03,11,14,29,3.30
2009,03,11,14,30,3.30
2009,03,11,14,31,3.30
2009,03,11,14,32,3.40
2009,03,11,14,33,3.40
2009,03,11,14,34,3.50
2009,03,11,14,35,3.50
2009,03,11,14,36,3.60
2009,03,11,14,37,3.60
2009,03,11,14,38,3.60
2009,03,11,14,39,3.60
2009,03,11,14,40,3.70
2009,03,11,14,41,3.70
2009,03,11,14,42,3.70
2009,03,11,14,43,3.80
2009,03,11,14,44,3.80
2009,03,11,14,45,3.80
2009,03,11,14,46,3.80
2009,03,11,14,47,3.80
2009,03,11,14,48,3.70
2009,03,11,14,49,3.70
2009,03,11,14,50,3.70
2009,03,11,14,51,3.70
2009,03,11,14,52,3.70
2009,03,11,14,53,3.80
2009,03,11,14,54,3.80
2009,03,11,14,55,3.80
2009,03,11,14,56,3.80
2009,03,11,14,57,3.80
2009,03,11,14,58,3.70
2009,03,11,14,59,3.70
2009,03,11,15,00,3.70
2009,03,11,15,01,3.70
2009,03,11,15,02,3.70
2009,03,11,15,03,3.70
2009,03,11,15,04,3.70
2009,03,11,15,05,3.70
2009,03,11,15,06,3.80
2009,03,11,15,07,3.80
2009,03,11,15,08,3.80
2009,03,11,15,09,3.80
2009,03,11,15,10,3.90
2009,03,11,15,11,3.80
2009,03,11,15,12,3.80
2009,03,11,15,13,3.80
2009,03,11,15,14,3.80
2009,03,11,15,15,3.90
2009,03,11,15,16,3.90
2009,03,11,15,17,3.90
2009,03,11,15,18,4.00
2009,03,11,15,19,4.00
2009,03,11,15,20,4.10
2009,03,11,15,21,4.10
2009,03,11,15,22,4.10
2009,03,11,15,23,4.10
2009,03,11,15,24,4.10
2009,03,11,15,25,4.00
2009,03,11,15,26,4.00
2009,03,11,15,27,3.90
2009,03,11,15,28,3.90
2009,03,11,15,29,3.90
2009,03,11,15,30,3.90
2009,03,11,15,31,3.90
2009,03,11,15,32,3.90
2009,03,11,15,33,4.00
2009,03,11,15,34,4.10
2009,03,11,15,35,4.10
2009,03,11,15,36,4.00
2009,03,11,15,37,3.90
2009,03,11,15,38,3.90
2009,03,11,15,39,3.80
2009,03,11,15,40,3.90
2009,03,11,15,41,3.90
2009,03,11,15,42,3.90
2009,03,11,15,43,4.00
2009,03,11,15,44,4.00
2009,03,11,15,45,4.10
2009,03,11,15,46,4.10
2009,03,11,15,47,4.10
2009,03,11,15,48,4.10
2009,03,11,15,49,4.10
2009,03,11,15,50,4.10
2009,03,11,15,51,4.10
2009,03,11,15,52,4.10
2009,03,11,15,53,4.20
2009,03,11,15,54,4.20
2009,03,11,15,55,4.20
2009,03,11,15,56,4.20
2009,03,11,15,57,4.20
2009,03,11,15,58,4.20
2009,03,11,15,59,4.20
2009,03,11,16,00,4.20
2009,03,11,16,01,4.20
2009,03,11,16,02,4.10
2009,03,11,16,03,4.10
2009,03,11,16,04,4.10
2009,03,11,16,05,4.10
2009,03,11,16,06,4.00
2009,03,11,16,07,4.00
2009,03,11,16,08,3.90
2009,03,11,16,09,3.90
2009,03,11,16,10,4.00
2009,03,11,16,11,3.90
2009,03,11,16,12,3.90
2009,03,11,16,13,3.90
2009,03,11,16,14,3.90
2009,03,11,16,15,3.90
2009,03,11,16,16,4.00
2009,03,11,16,17,4.00
2009,03,11,16,18,4.00
2009,03,11,16,19,4.10
2009,03,11,16,20,4.10
2009,03,11,16,21,4.20
2009,03,11,16,22,4.20
2009,03,11,16,23,4.20
2009,03,11,16,24,4.20
2009,03,11,16,25,4.20
2009,03,11,16,26,4.20
2009,03,11,16,27,4.20
2009,03,11,16,28,4.20
2009,03,11,16,29,4.20
2009,03,11,16,30,4.20
2009,03,11,16,31,4.20
2009,03,11,16,32,4.20
2009,03,11,16,33,4.20
2009,03,11,16,34,4.20
2009,03,11,16,35,4.20
2009,03,11,16,36,4.30
2009,03,11,16,37,4.30
2009,03,11,16,38,4.30
2009,03,11,16,39,4.30
2009,03,11,16,40,4.30
2009,03,11,16,41,4.20
2009,03,11,16,42,4.20
2009,03,11,16,43,4.20
2009,03,11,16,44,4.10
2009,03,11,16,45,4.10
2009,03,11,16,46,4.10
2009,03,11,16,47,4.10
2009,03,11,16,48,4.00
2009,03,11,16,49,4.10
2009,03,11,16,50,4.10
2009,03,11,16,51,4.10
2009,03,11,16,52,4.10
2009,03,11,16,53,4.10
2009,03,11,16,54,4.10
2009,03,11,16,55,4.10
2009,03,11,16,56,4.20
2009,03,11,16,57,4.20
2009,03,11,16,58,4.20
2009,03,11,16,59,4.20
2009,03,11,17,00,4.20
2009,03,11,17,01,4.20
2009,03,11,17,02,4.10
2009,03,11,17,03,4.10
2009,03,11,17,04,4.10
2009,03,11,17,05,4.10
2009,03,11,17,06,4.10
2009,03,11,17,07,4.10
2009,03,11,17,08,4.10
2009,03,11,17,09,4.10
2009,03,11,17,10,4.10
2009,03,11,17,11,4.10
2009,03,11,17,12,4.10
2009,03,11,17,13,4.10
2009,03,11,17,14,4.20
2009,03,11,17,15,4.20
2009,03,11,17,16,4.20
2009,03,11,17,17,4.20
2009,03,11,17,18,4.20
2009,03,11,17,19,4.20
2009,03,11,17,20,4.10
2009,03,11,17,21,4.10
2009,03,11,17,22,4.10
2009,03,11,17,23,4.10
2009,03,11,17,24,4.10
2009,03,11,17,25,4.10
2009,03,11,17,26,4.10
2009,03,11,17,27,4.10
2009,03,11,17,28,4.10
2009,03,11,17,29,4.10
2009,03,11,17,30,4.10
2009,03,11,17,31,4.10
2009,03,11,17,32,4.10
2009,03,11,17,33,4.00
2009,03,11,17,34,4.00
2009,03,11,17,35,4.00
2009,03,11,17,36,3.90
2009,03,11,17,37,3.90
2009,03,11,17,38,3.90
2009,03,11,17,39,3.90
2009,03,11,17,40,3.90
2009,03,11,17,41,3.90
2009,03,11,17,42,3.90
2009,03,11,17,43,3.90
2009,03,11,17,44,3.90
2009,03,11,17,45,3.90
2009,03,11,17,46,3.90
2009,03,11,17,47,3.90
2009,03,11,17,48,3.90
2009,03,11,17,49,3.80
2009,03,11,17,50,3.80
2009,03,11,17,51,3.80
2009,03,11,17,52,3.80
2009,03,11,17,53,3.80
2009,03,11,17,54,3.80
2009,03,11,17,55,3.80
2009,03,11,17,56,3.70
2009,03,11,17,57,3.70
2009,03,11,17,58,3.70
2009,03,11,17,59,3.70
2009,03,11,18,00,3.70
2009,03,11,18,01,3.70
2009,03,11,18,02,3.70
2009,03,11,18,03,3.70
2009,03,11,18,04,3.70
2009,03,11,18,05,3.70
2009,03,11,18,06,3.70
2009,03,11,18,07,3.70
2009,03,11,18,08,3.70
2009,03,11,18,09,3.70
2009,03,11,18,10,3.70
2009,03,11,18,11,3.70
2009,03,11,18,12,3.70
2009,03,11,18,13,3.60
2009,03,11,18,14,3.60
2009,03,11,18,15,3.60
2009,03,11,18,16,3.60
2009,03,11,18,17,3.60
2009,03,11,18,18,3.60
2009,03,11,18,19,3.60
2009,03,11,18,20,3.60
2009,03,11,18,21,3.60
2009,03,11,18,22,3.50
2009,03,11,18,23,3.50
2009,03,11,18,24,3.50
2009,03,11,18,25,3.50
2009,03,11,18,26,3.50
2009,03,11,18,27,3.50
2009,03,11,18,28,3.50
2009,03,11,18,29,3.50
2009,03,11,18,30,3.50
2009,03,11,18,31,3.50
2009,03,11,18,32,3.40
2009,03,11,18,33,3.40
2009,03,11,18,34,3.40
2009,03,11,18,35,3.40
2009,03,11,18,36,3.40
2009,03,11,18,37,3.40
2009,03,11,18,38,3.40
2009,03,11,18,39,3.40
2009,03,11,18,40,3.30
2009,03,11,18,41,3.30
2009,03,11,18,42,3.30
2009,03,11,18,43,3.30
2009,03,11,18,44,3.30
2009,03,11,18,45,3.30
2009,03,11,18,46,3.30
2009,03,11,18,47,3.30
2009,03,11,18,48,3.30
2009,03,11,18,49,3.30
2009,03,11,18,50,3.30
2009,03,11,18,51,3.20
2009,03,11,18,52,3.20
2009,03,11,18,53,3.20
2009,03,11,18,54,3.20
2009,03,11,18,55,3.20
2009,03,11,18,56,3.20
2009,03,11,18,57,3.20
2009,03,11,18,58,3.20
2009,03,11,18,59,3.20
2009,03,11,19,00,3.20
2009,03,11,19,01,3.20
2009,03,11,19,02,3.20
2009,03,11,19,03,3.10
2009,03,11,19,04,3.10
2009,03,11,19,05,3.10
2009,03,11,19,06,3.10
2009,03,11,19,07,3.10
2009,03,11,19,08,3.10
2009,03,11,19,09,3.10
2009,03,11,19,10,3.10
2009,03,11,19,11,3.00
2009,03,11,19,12,3.00
2009,03,11,19,13,3.00
2009,03,11,19,14,3.00
2009,03,11,19,15,3.00
2009,03,11,19,16,2.90
2009,03,11,19,17,2.90
2009,03,11,19,18,2.90
2009,03,11,19,19,2.90
2009,03,11,19,20,2.90
2009,03,11,19,21,2.90
2009,03,11,19,22,2.90
2009,03,11,19,23,2.90
2009,03,11,19,24,2.90
2009,03,11,19,25,2.90